HELLAS-SAT 2 (27811 NORAD) Tracking and Keplerian Element Data

This shows tracking and keplerian element data for the satellite.

Feedback or suggestion? Click here.




ElementValue
Catalog27811
NameHELLAS-SAT 2
Epoch Orbit4105
Epoch Day354.05563906
Epoch Year2025
RAAN70.036
Inclination6.9081
Eccentricity0.001071
Argument of Perigee193.8977
Mean Anonmoly194.983
Mean Motion1.00272322
Decay Rate-6.6E-07
L11 27811U 03020A 25354.05563906 -.00000066 00000+0 00000+0 0 9998
L22 27811 6.9081 70.0360 0010710 193.8977 194.9830 1.00272322 41057



Live tracking and technical data element details for HELLAS-SAT 2 (NORAD 27811). HELLAS-SAT 2 can be tracked NOW for your location showing map with azimuth and elevation plus other details from your city location.







IsCatalogInMostPopularTable: catalog: 27811, numindb: 590
Update: records affected: 1



GetName: 27811 HELLAS-SAT 2

Hit Count: updated at: Thu, 16 Apr 2026 05:14:50 GMT